When you browse on this site, cookies collect data to enhance your experience and personalize the content and advertising you see.
Visit our Privacy Policy to learn more. By continuing to use the site, you agree to this use of cookies and data.
  • In United States
  • List of Countries
  • For 7 days
  • Water Temperature
  • Satellite Maps
  • Weather Map
  • Weather Widgets
  • user-avatar
    Login

    Hourly Weather Konstantyna

    Today, 13 December, Thursday

    Time Temperature Precipitation Wind Pressure Humidity
    00:00 +8°C° 0 mm 2 mps 710 mmHg 76%
    01:00 +8°C° 0 mm 2 mps 709 mmHg 75%
    02:00 +8°C° 0 mm 2 mps 709 mmHg 74%
    03:00 +8°C° 0 mm 2 mps 709 mmHg 73%
    04:00 +8°C° 0 mm 2 mps 708 mmHg 71%
    05:00 +8°C° 0 mm 2 mps 708 mmHg 69%
    06:00 +8°C° 0 mm 2 mps 708 mmHg 67%
    07:00 +9°C° 0 mm 2 mps 708 mmHg 62%
    08:00 +12°C° 0 mm 2 mps 708 mmHg 57%
    09:00 +13°C° 0 mm 2 mps 708 mmHg 52%
    10:00 +14°C° 0 mm 3 mps 708 mmHg 47%
    11:00 +16°C° 0 mm 3 mps 708 mmHg 42%
    12:00 +16°C° 0 mm 5 mps 707 mmHg 37%
    13:00 +16°C° 0 mm 5 mps 707 mmHg 39%
    14:00 +16°C° 0 mm 5 mps 706 mmHg 40%
    15:00 +16°C° 0 mm 5 mps 706 mmHg 41%
    16:00 +14°C° 0 mm 4 mps 705 mmHg 45%
    17:00 +13°C° 0 mm 3 mps 705 mmHg 48%
    18:00 +12°C° 0 mm 3 mps 704 mmHg 51%
    19:00 +12°C° 0.1 mm 3 mps 704 mmHg 52%
    20:00 +12°C° 0.1 mm 2 mps 704 mmHg 54%
    21:00 +12°C° 0.1 mm 2 mps 703 mmHg 55%
    22:00 +11°C° 0 mm 3 mps 703 mmHg 56%
    23:00 +10°C° 0 mm 3 mps 703 mmHg 56%

    Tomorrow, 14 December, Friday

    Time Temperature Precipitation Wind Pressure Humidity
    00:00 +10°C° 0 mm 4 mps 703 mmHg 56%
    01:00 +8°C° 0.1 mm 4 mps 703 mmHg 60%
    02:00 +8°C° 0.1 mm 4 mps 703 mmHg 64%
    03:00 +8°C° 0.1 mm 4 mps 702 mmHg 67%
    04:00 +8°C° 0.1 mm 3 mps 702 mmHg 69%
    05:00 +8°C° 0.1 mm 3 mps 702 mmHg 71%
    06:00 +7°C° 0.1 mm 3 mps 701 mmHg 72%
    07:00 +8°C° 0.1 mm 3 mps 701 mmHg 68%
    08:00 +8°C° 0.1 mm 3 mps 701 mmHg 64%
    09:00 +9°C° 0.1 mm 3 mps 702 mmHg 60%
    10:00 +8°C° 0.4 mm 4 mps 702 mmHg 61%
    11:00 +8°C° 0.4 mm 4 mps 702 mmHg 62%
    12:00 +10°C° 0.4 mm 4 mps 702 mmHg 63%
    13:00 +9°C° 0.1 mm 5 mps 702 mmHg 64%
    14:00 +9°C° 0.1 mm 5 mps 703 mmHg 64%
    15:00 +9°C° 0.1 mm 5 mps 703 mmHg 65%
    16:00 +8°C° 0.3 mm 4 mps 704 mmHg 69%
    17:00 +8°C° 0.3 mm 4 mps 704 mmHg 73%
    18:00 +8°C° 0.3 mm 3 mps 705 mmHg 77%
    19:00 +7°C° 2.1 mm 4 mps 706 mmHg 81%
    20:00 +7°C° 2.1 mm 6 mps 706 mmHg 86%
    21:00 +8°C° 2.1 mm 7 mps 707 mmHg 91%
    22:00 +7°C° 1.4 mm 8 mps 708 mmHg 90%
    23:00 +6°C° 1.4 mm 9 mps 708 mmHg 89%

    Day after tomorrow, 15 December, Saturday

    Time Temperature Precipitation Wind Pressure Humidity
    00:00 +6°C° 1.4 mm 10 mps 709 mmHg 89%
    01:00 +6°C° 0.1 mm 9 mps 709 mmHg 87%
    02:00 +6°C° 0.1 mm 9 mps 710 mmHg 84%
    03:00 +5°C° 0.1 mm 8 mps 710 mmHg 82%
    04:00 +5°C° 0 mm 7 mps 711 mmHg 82%
    05:00 +4°C° 0 mm 6 mps 711 mmHg 83%
    06:00 +5°C° 0 mm 5 mps 711 mmHg 84%
    07:00 +6°C° 0 mm 5 mps 712 mmHg 80%
    08:00 +7°C° 0 mm 5 mps 713 mmHg 77%
    09:00 +8°C° 0 mm 6 mps 713 mmHg 73%
    10:00 +8°C° 0.1 mm 5 mps 713 mmHg 71%
    11:00 +9°C° 0.1 mm 5 mps 713 mmHg 70%
    12:00 +9°C° 0.1 mm 5 mps 713 mmHg 68%
    13:00 +9°C° 0.1 mm 5 mps 713 mmHg 70%
    14:00 +9°C° 0.1 mm 5 mps 713 mmHg 72%
    15:00 +10°C° 0.1 mm 4 mps 713 mmHg 74%
    16:00 +10°C° 0.1 mm 4 mps 713 mmHg 78%
    17:00 +9°C° 0.1 mm 3 mps 713 mmHg 82%
    18:00 +8°C° 0.1 mm 3 mps 714 mmHg 86%
    19:00 +8°C° 0 mm 3 mps 714 mmHg 87%
    20:00 +8°C° 0 mm 3 mps 714 mmHg 87%
    21:00 +7°C° 0 mm 3 mps 714 mmHg 88%
    22:00 +7°C° 0 mm 2 mps 714 mmHg 88%
    23:00 +7°C° 0 mm 2 mps 714 mmHg 88%

    16 December, Sunday

    Time Temperature Precipitation Wind Pressure Humidity
    00:00 +7°C° 0 mm 2 mps 714 mmHg 88%
    01:00 +7°C° 0 mm 2 mps 714 mmHg 87%
    02:00 +6°C° 0 mm 2 mps 713 mmHg 86%
    03:00 +6°C° 0 mm 2 mps 713 mmHg 86%
    04:00 +6°C° 0 mm 2 mps 713 mmHg 84%
    05:00 +6°C° 0 mm 2 mps 713 mmHg 83%
    06:00 +6°C° 0 mm 2 mps 713 mmHg 81%
    07:00 +8°C° 0 mm 2 mps 714 mmHg 74%
    08:00 +9°C° 0 mm 2 mps 714 mmHg 66%
    09:00 +12°C° 0 mm 2 mps 714 mmHg 59%
    10:00 +14°C° 0 mm 2 mps 714 mmHg 53%
    11:00 +15°C° 0 mm 2 mps 714 mmHg 48%
    12:00 +17°C° 0 mm 2 mps 714 mmHg 42%
    13:00 +17°C° 0 mm 2 mps 714 mmHg 44%
    14:00 +19°C° 0 mm 1 mps 714 mmHg 46%
    15:00 +19°C° 0 mm 1 mps 714 mmHg 48%
    16:00 +16°C° 0 mm 1 mps 714 mmHg 53%
    17:00 +14°C° 0 mm 1 mps 714 mmHg 58%
    18:00 +13°C° 0 mm 1 mps 714 mmHg 62%
    19:00 +12°C° 0 mm 1 mps 714 mmHg 63%
    20:00 +12°C° 0 mm 1 mps 714 mmHg 63%
    21:00 +12°C° 0 mm 1 mps 714 mmHg 63%
    22:00 +10°C° 0 mm 2 mps 714 mmHg 64%
    23:00 +10°C° 0 mm 2 mps 714 mmHg 64%

    17 December, Monday

    Time Temperature Precipitation Wind Pressure Humidity
    00:00 +10°C° 0 mm 2 mps 714 mmHg 64%
    01:00 +9°C° 0 mm 2 mps 714 mmHg 65%
    02:00 +9°C° 0 mm 2 mps 714 mmHg 65%
    03:00 +9°C° 0 mm 2 mps 713 mmHg 66%
    04:00 +9°C° 0 mm 2 mps 714 mmHg 66%
    05:00 +8°C° 0 mm 2 mps 714 mmHg 67%
    06:00 +8°C° 0 mm 2 mps 714 mmHg 67%
    07:00 +11°C° 0 mm 1 mps 714 mmHg 63%
    08:00 +12°C° 0 mm 1 mps 715 mmHg 58%
    09:00 +14°C° 0 mm 1 mps 715 mmHg 54%
    10:00 +15°C° 0 mm 2 mps 715 mmHg 53%
    11:00 +16°C° 0 mm 2 mps 715 mmHg 52%
    12:00 +16°C° 0 mm 3 mps 715 mmHg 50%
    13:00 +16°C° 0 mm 3 mps 715 mmHg 54%
    14:00 +16°C° 0 mm 3 mps 715 mmHg 59%
    15:00 +14°C° 0 mm 4 mps 715 mmHg 63%
    16:00 +13°C° 0 mm 3 mps 715 mmHg 70%
    17:00 +12°C° 0 mm 3 mps 716 mmHg 78%
    18:00 +12°C° 0 mm 2 mps 716 mmHg 86%
    19:00 +10°C° 0 mm 2 mps 717 mmHg 88%
    20:00 +10°C° 0 mm 1 mps 717 mmHg 90%
    21:00 +10°C° 0 mm 1 mps 717 mmHg 92%
    22:00 +9°C° 0 mm 1 mps 717 mmHg 92%
    23:00 +9°C° 0 mm 1 mps 717 mmHg 93%

    18 December, Tuesday

    Time Temperature Precipitation Wind Pressure Humidity
    00:00 +9°C° 0 mm 1 mps 718 mmHg 93%
    01:00 +8°C° 0 mm 1 mps 717 mmHg 93%
    02:00 +8°C° 0 mm 1 mps 717 mmHg 94%
    03:00 +7°C° 0 mm 1 mps 717 mmHg 94%
    04:00 +7°C° 0 mm 1 mps 717 mmHg 94%
    05:00 +7°C° 0 mm 1 mps 717 mmHg 93%
    06:00 +7°C° 0 mm 1 mps 717 mmHg 93%
    07:00 +8°C° 0 mm 1 mps 718 mmHg 86%
    08:00 +9°C° 0 mm 1 mps 718 mmHg 80%
    09:00 +11°C° 0 mm 1 mps 719 mmHg 74%
    10:00 +12°C° 0 mm 1 mps 718 mmHg 65%
    11:00 +13°C° 0 mm 1 mps 718 mmHg 56%
    12:00 +14°C° 0 mm 1 mps 718 mmHg 46%
    13:00 +15°C° 0 mm 1 mps 718 mmHg 45%
    14:00 +15°C° 0 mm 1 mps 717 mmHg 43%
    15:00 +16°C° 0 mm 1 mps 717 mmHg 42%
    16:00 +14°C° 0 mm 1 mps 717 mmHg 46%
    17:00 +12°C° 0 mm 1 mps 717 mmHg 51%
    18:00 +10°C° 0 mm 2 mps 717 mmHg 56%
    19:00 +10°C° 0 mm 2 mps 717 mmHg 56%
    20:00 +9°C° 0 mm 2 mps 717 mmHg 57%
    21:00 +9°C° 0 mm 2 mps 717 mmHg 57%
    22:00 +9°C° 0 mm 2 mps 716 mmHg 60%
    23:00 +9°C° 0 mm 2 mps 716 mmHg 63%
    Show more